Regional Weather Roundup
Issued by NWS

Home | Current Version | Previous Version | Text Only | Print | Product List | Glossary On
Versions: 1 2 3 4 5 6 7 8 9 10 11 12 13 14 15 16 17 18 19 20 21 22 23 24 25 26 27 28 29 30 31 32 33 34 35 36 37 38 39 40 41 42 43 44 45 46 47 48 49 50
768
ASUS45 KBOU 211007
RWRCO

WEATHER ROUNDUP FOR COLORADO
NATIONAL WEATHER SERVICE DENVER/BOULDER CO
400 AM MDT SAT OCT 21 2017

NOTE: "FAIR" INDICATES FEW OR NO CLOUDS BELOW 12000 FEET WITH NO
SIGNIFICANT WEATHER AND/OR OBSTRUCTIONS TO VISIBILITY.

COZ001>005-013-030-031-211100-
...NORTHWEST COLORADO...

CITY           SKY/WX    TMP DP  RH WIND       PRES   REMARKS
CRAIG          CLOUDY    31  24  75 SW6       30.01S WCI  25
HAYDEN         CLOUDY    29  25  85 W5        30.01F WCI  24
MEEKER         MOCLDY    31  29  92 CALM      30.01S
RABBIT EARS PA FOG       18  18 100 W13G31    29.92F VSB 3/4 WCI   4
STEAMBOAT SPGS CLOUDY    29  28  96 SW5       29.98F WCI  23
WALDEN         NOT AVBL
$$

COZ006>008-011-211100-
...WEST CENTRAL VALLEYS...

CITY           SKY/WX    TMP DP  RH WIND       PRES   REMARKS
GRAND JUNCTION FAIR      36  16  44 N8        29.98R
MONTROSE       CLOUDY    45  14  28 W9        29.99R
EAGLE          FLURRIES  33  30  88 N3        30.00R
RIFLE          FAIR      37  30  75 W8        29.99S
DELTA          FAIR      47  17  29 W10G21    29.96R
NUCLA          MOCLDY    45  12  26 NW10      30.01S
$$

COZ017>023-064>068-211100-
...SOUTHWEST COLORADO...

CITY           SKY/WX    TMP DP  RH WIND       PRES   REMARKS
DURANGO        CLOUDY    49  30  48 SW9       29.90R
CORTEZ         MOCLDY    45  16  31 N13G22    29.97R
PAGOSA SPRINGS FAIR      46  28  50 SW3       29.92R
TELLURIDE      MOCLDY    33  26  73 W6        30.03S WCI  28
WOLF CREEK PAS FAIR      27  23  86 S15G24    30.05R WCI  15
$$

COZ009-010-012-014-032>034-037-058>063-211100-
...CENTRAL COLORADO...

CITY           SKY/WX    TMP DP  RH WIND       PRES   REMARKS
ASPEN          FAIR      29  27  92 CALM      29.96F
BUENA VISTA    CLOUDY    35  25  67 NW17G30   29.85S WCI  25
COPPER MTN     CLOUDY    23  18  80 MISG      29.93F
BERTHOUD PASS  CLOUDY    12   3  67 MISG      29.81F
COTTONWOOD PAS CLOUDY    36  30  80 W20G30    29.87R
GUNNISON       CLOUDY    36  28  73 N10       29.94R
KREMMLING      CLOUDY    34  27  75 W6        29.99R WCI  29
LEADVILLE      MOCLDY    22  15  75 W7        29.93F WCI  13
MONARCH PASS   CLOUDY    27  25  93 W40G138   29.99F WCI   8
SALIDA         CLOUDY    42  35  75 W10       29.91R
SUNLIGHT       CLOUDY    19  18  93 MISG      30.02F FOG
WILKERSON PASS FAIR      25  19  80 W15G28    29.86F WCI  12
$$

COZ069>075-211100-
...SAN LUIS VALLEY/SANGRE DE CRISTO MOUNTAINS...

CITY           SKY/WX    TMP DP  RH WIND       PRES   REMARKS
ALAMOSA        FAIR      42  31  64 NE12      29.85R
DEL NORTE      FAIR      41  25  52 W8        29.86R
LA VETA PASS   CLOUDY    37  28  70 SW22      29.98R
SAGUACHE       CLOUDY    37  32  81 NW16G35   29.88R
$$

COZ035-036-038>040-211100-
...NORTHERN COLORADO FRONT RANGE...

CITY           SKY/WX    TMP DP  RH WIND       PRES   REMARKS
DENVER INTL AP CLOUDY    53  24  32 W17       29.67R
DMNS CITY PARK   N/A     51  20  29 N14       29.69S
AURORA         CLOUDY    51  25  37 W9        29.69S
FRONT RANGE AP CLOUDY    50  36  57 S16       29.69S
ERIE MUNI ARPT FAIR      52  21  30 SW9       29.71R
BOULDER MUN AP FAIR      52  21  30 NE5       29.65R
CENTENNIAL     CLOUDY    50  23  34 NW6       29.70R
BROOMFIELD     FAIR      50  19  29 W36G54    29.70R
FORT COLLINS   FAIR      48  24  39 N7G20     29.67R
LONGMONT       CLOUDY    56  20  24 W22G32    29.67R
$$

COZ041-046-047-076>085-087-088-211100-
...PIKES PEAK/PALMER DIVIDE AND SOUTHERN FOOTHILLS...

CITY           SKY/WX    TMP DP  RH WIND       PRES   REMARKS
COLO. SPRINGS  MOCLDY    53  34  48 N15G28    29.69R
A. F. ACADEMY  CLOUDY    48  30  49 NW14G26   29.72R
SCHRIEVER AFB  MOCLDY    52  32  46 N18G26    29.70R
CHEYENNE MTN   MOCLDY    48  33  56 NW5       29.65S
ELLICOTT       MIX PCPN   1  32 100 N15       29.68R WCI -18
FALCON         CLOUDY    48  33  57 N8        29.75R
FORT CARSON    FAIR      52  33  48 NW7       29.67R
LIMON          MOCLDY    46  32  58 N12       29.69R
MONUMENT HILL  CLOUDY    39  36  87 CALM      29.75F
CANON CITY     FAIR      54  37  54 W16G22    29.67F
WALSENBURG     PTSUNNY   55  32  41 W14G24    29.73R
TRINIDAD       FAIR      57  28  33 W9        29.70R
$$

COZ042>045-048>051-090-091-211100-
...NORTHEAST COLORADO...

CITY           SKY/WX    TMP DP  RH WIND       PRES   REMARKS
GREELEY ARPT   FAIR      49  20  31 NW23G39   29.67R
AKRON          MOCLDY    48  24  39 NW17      29.70R
BURLINGTON     FAIR      51  35  54 NW10      29.65R
WRAY           NOT AVBL
YUMA           NOT AVBL
STERLING       FAIR      52  19  28 NW35G55   29.62R
HOLYOKE        FAIR      54  30  40 NW21G29   29.63R
FORT MORGAN    CLOUDY    50  16  25 NW26G33   29.68R
$$

COZ086-089-092>099-211100-
...SOUTHEAST COLORADO...

CITY           SKY/WX    TMP DP  RH WIND       PRES   REMARKS
PUEBLO         FAIR      58  35  42 W22G32    29.64R
LA JUNTA       FAIR      58  35  42 W21G30    29.64R
LAMAR          FAIR      63  40  42 SW15      29.56R
SPRINGFIELD      N/A     49  44  83 S12       29.65R
$$




USA.gov is the U.S. government's official web portal to all federal, state and local government web resources and services.